Weather History for PADQ - May, 2012

Change the Weather History Date:

Tuesday, May 1, 2012

  Actual Average Record
Temperature  
Mean Temperature 42 °F 41 °F  
Max Temperature 46 °F 47 °F 59 °F (2003)
Min Temperature 38 °F 36 °F 29 °F (2009)
Degree Days  
Heating Degree Days 23 24  
Month to date heating degree days 23 24  
Since 1 July heating degree days 8311 7716  
Cooling Degree Days 0    
Month to date cooling degree days 0  
Year to date cooling degree days 0  
Moisture  
Dew Point 23 °F    
Average Humidity 0    
Maximum Humidity 0    
Minimum Humidity 0    
Precipitation  
Precipitation 0.00 in 0.18 in 1.25 in (1971)
Month to date precipitation 0.00 0.18  
Year to date precipitation 19.71 25.95  
Snow  
Snow 0.00 in 0.00 in 4.00 in (1968)
Month to date snowfall 0.0 0.0  
Since 1 July snowfall 142.7 68.7  
Snow Depth 0.00 in    
Sea Level Pressure  
Sea Level Pressure 29.75 in    
Wind  
Wind Speed 13 mph (West)    
Max Wind Speed 25 mph    
Max Gust Speed 35 mph    
Visibility 10 miles    
Events      
T = Trace of Precipitation, MM = Missing Value Source: NWS Daily Summary

Daily Weather History Graph

Daily Weather History Graph

Search for Another Location

Airport or City:

Trip Planner

Search our weather history database for the weather conditions in past years. The results will help you decide how hot, cold, wet, or windy it might be!

Date:

Astronomy

May. 01, 2012 Rise Set
Actual Time 6:16 AM AKDT 9:58 PM AKDT
Civil Twilight 5:28 AM AKDT 10:47 PM AKDT
Nautical Twilight 4:19 AM AKDT 11:57 PM AKDT
Astronomical Twilight 2:39 AM AKDT 1:34 AM AKDT
Moon 4:17 PM AKDT (5/1) 4:23 AM AKDT (5/1)
Length of Visible Light 17h 18m
Length of Day
15h 41m
Waxing Gibbous, 75% of the Moon is Illuminated
May 1
Waxing Gibbous
May 5
Full
May 12
Last Quarter
May 20
New
May 28
First Quarter

Hourly Weather History & Observations

Time (AKDT) Temp. Windchill Dew Point Humidity Pressure Visibility Wind Dir Wind Speed Gust Speed Precip Events Conditions
12:53 AM 41.0 °F 33.9 °F 30.0 °F 65% 29.73 in 10.0 mi West 12.7 mph - N/A   Scattered Clouds
1:53 AM 41.0 °F 35.2 °F 28.9 °F 62% 29.73 in 10.0 mi WSW 9.2 mph 17.3 mph N/A   Scattered Clouds
2:53 AM 41.0 °F 34.7 °F 28.9 °F 62% 29.73 in 10.0 mi West 10.4 mph - N/A   Scattered Clouds
3:53 AM 39.0 °F 31.8 °F 28.0 °F 65% 29.73 in 10.0 mi WSW 11.5 mph 16.1 mph N/A   Scattered Clouds
4:53 AM 39.0 °F 31.8 °F 27.0 °F 62% 29.73 in 10.0 mi WNW 11.5 mph - N/A   Scattered Clouds
5:53 AM 37.9 °F 35.5 °F 27.0 °F 65% 29.73 in 10.0 mi NW 3.5 mph - N/A   Scattered Clouds
6:53 AM 37.9 °F 28.5 °F 26.1 °F 62% 29.74 in 10.0 mi West 17.3 mph - N/A   Scattered Clouds
7:53 AM 39.0 °F 32.3 °F 26.1 °F 60% 29.73 in 10.0 mi WNW 10.4 mph - N/A   Scattered Clouds
8:53 AM 41.0 °F 32.5 °F 24.1 °F 51% 29.73 in 10.0 mi West 17.3 mph 23.0 mph N/A   Scattered Clouds
9:53 AM 42.1 °F 35.7 °F 26.1 °F 53% 29.72 in 10.0 mi WSW 11.5 mph 25.3 mph N/A   Scattered Clouds
10:53 AM 44.1 °F 39.0 °F 24.1 °F 45% 29.73 in 10.0 mi West 9.2 mph 24.2 mph N/A   Scattered Clouds
11:53 AM 45.0 °F 39.7 °F 23.0 °F 42% 29.72 in 9.0 mi West 10.4 mph - N/A   Scattered Clouds
12:53 PM 46.0 °F 38.8 °F 24.1 °F 42% 29.73 in 9.0 mi West 18.4 mph 26.5 mph N/A   Scattered Clouds
1:53 PM 45.0 °F 36.9 °F 23.0 °F 42% 29.73 in 10.0 mi WNW 20.7 mph 27.6 mph N/A   Scattered Clouds
2:53 PM 45.0 °F 37.6 °F 18.0 °F 34% 29.74 in 10.0 mi WNW 17.3 mph 27.6 mph N/A   Scattered Clouds
3:53 PM 45.0 °F 36.6 °F 18.0 °F 34% 29.74 in 8.0 mi WNW 21.9 mph 29.9 mph N/A   Partly Cloudy
4:53 PM 45.0 °F 37.1 °F 19.0 °F 36% 29.75 in 10.0 mi WNW 19.6 mph 26.5 mph N/A   Partly Cloudy
5:53 PM 44.1 °F 35.0 °F 17.1 °F 34% 29.75 in 10.0 mi West 24.2 mph 33.4 mph N/A   Partly Cloudy
6:53 PM 43.0 °F 33.8 °F 18.0 °F 37% 29.76 in 10.0 mi WNW 23.0 mph 33.4 mph N/A   Partly Cloudy
7:53 PM 42.1 °F 33.6 °F 18.0 °F 38% 29.77 in 10.0 mi WNW 18.4 mph 26.5 mph N/A   Partly Cloudy
8:53 PM 39.0 °F 29.9 °F 17.1 °F 41% 29.78 in 10.0 mi WNW 17.3 mph 25.3 mph N/A   Scattered Clouds
9:53 PM 37.9 °F 30.0 °F 18.0 °F 45% 29.79 in 10.0 mi NW 12.7 mph - N/A   Scattered Clouds
10:53 PM 37.0 °F 29.8 °F 19.0 °F 48% 29.81 in 10.0 mi West 10.4 mph - N/A   Scattered Clouds
11:53 PM 37.0 °F - 16.0 °F 42% 29.80 in 10.0 mi Calm Calm - N/A   Scattered Clouds